Regional Weather Roundup
Issued by NWS

Home | Current Version | Previous Version | Text Only | Print | Product List | Glossary On
Versions: 1 2 3 4 5 6 7 8 9 10 11 12 13 14 15 16 17 18 19 20 21 22 23 24 25 26 27 28 29 30 31 32 33 34 35 36 37 38 39 40 41 42 43 44 45 46 47 48 49 50
000
ASUS43 KBIS 141002
RWRND

NORTH DAKOTA REGIONAL WEATHER ROUNDUP
NATIONAL WEATHER SERVICE BISMARCK ND
400 AM CST THU DEC 14 2017

NOTE: "FAIR" INDICATES FEW OR NO CLOUDS BELOW 12,000 FEET WITH NO
SIGNIFICANT WEATHER AND/OR OBSTRUCTIONS TO VISIBILITY.


NDZ001>003-009>011-017-141100-
NORTHWEST NORTH DAKOTA

CITY           SKY/WX    TMP DP  RH WIND       PRES   REMARKS
WILLISTON      CLOUDY    34  27  75 N22G33    30.06R
MINOT          CLOUDY    33  28  81 NW15      29.97R
MINOT AFB      CLOUDY    32  28  85 NW14      29.96R
$$

NDZ018>021-031>035-040>046-141100-
SOUTHWEST NORTH DAKOTA

CITY           SKY/WX    TMP DP  RH WIND       PRES   REMARKS
BISMARCK       CLOUDY    28  26  92 W5        29.98S
DICKINSON      CLOUDY    32  29  88 NW17      30.00R
GARRISON         N/A     33  29  85 NW17      29.96R
HETTINGER ARPT CLOUDY    33  28  81 NW23G31   30.02R
$$

NDZ004>008-012>016-024-026-027-054-141100-
NORTHEAST NORTH DAKOTA

CITY           SKY/WX    TMP DP  RH WIND       PRES   REMARKS
GRAND FORKS    CLOUDY    18  15  88 S6        29.99S WCI  10
GRND FRKS AFB  FLURRIES  19  15  84 SW5       29.98F WCI  12
DEVILS LAKE    FLURRIES  21  20  96 S5        29.95F WCI  15
$$

NDZ022-023-025-028>030-036>039-047>053-141100-
SOUTHEAST NORTH DAKOTA

CITY           SKY/WX    TMP DP  RH WIND       PRES   REMARKS
FARGO          CLOUDY    20  15  81 CALM      30.00F
JAMESTOWN      CLOUDY    26  25  96 S3        29.94F
$$




USA.gov is the U.S. government's official web portal to all federal, state and local government web resources and services.